STARLINK-32310, 61662

Orbit data source: Space-Track

STARLINK-32310, 61662 is a payload satellite owned by SpaceX/Seattle (US) in LEO that was launched on Sat, 26 Oct 2024 UTC via an FALCON 9 launch vehicle from the Air Force Eastern Test Range (AFETR). Payload-class satellites include a variety of spacecraft equipped with specific instruments for various scientific and technological missions. These include communications satellites like Starlink; space stations such as the ISS; scientific satellites like the Hubble; Earth observation satellites from companies like Planet Labs, Umbra, and HawkEye 360; GPS; miniature CubeSats for education and research; and military/defense satellites.

Loading next visibility...
Identifier
61662, 2024-193B
Orbit
LEO
Country
Flag of USUS
Related business
Manufacturer
SpaceX/Seattle
Mission
Operational Commercial Communications
Bus & Motor
STARLINK V2M, Unknown motor
Mass
730 kg wet, ~700 kg dry
Launch date (UTC)
2024-10-26 (2 years ago)
Launch vehicle
FALCON 9
Launch site
Air Force Eastern Test Range (AFETR)
Object type
Payload
Rocket body
Debris
Shape & HBR
Box + 2 Pan, 17.7 m
Radar Cross Section
33.884 m², Large (>1 m²)

Expand to show TLE details & history
Last TLE update: 11 hours ago

TLE from 11 hours ago
0 STARLINK-32310
1 61662U 24193B   26125.42617328  .00000343  00000-0  23718-4 0  9994
2 61662  53.1609 187.4439 0001164  98.1701 261.9432 15.30195591 85213
Epoch: 2026-05-05T10:13Z
TLE epoch observation values (Epoch: 2026-05-05T10:13:41.371Z)
Latitude
-0°
Longitude
170.72033°
Altitude
476.24 km
Speed
7.629 km/s
True Right ascension
12h 29m 46s
True Declination
0° 00' 00"
Sunlit
Object was in full shadow at epoch
Visualization orbit readout
Latitude
Unknown
Longitude
Unknown
Altitude
Unknown
Speed
Unknown
Apparent Right ascension
Unknown
Apparent Declination
Unknown
Sunlit
N/A
Visualization observer readout
Local Sidereal Time
05:25:55
Azimuth
Unknown
Elevation
Unknown
Doppler factor
Unknown
Orbital elements
Apogee altitude
476.282 km
Perigee altitude
474.687 km
Semi-major axis
6,853.622 km
Eccentricity
0.00012
Inclination
53.1609°
RAAN
187.4439°
Arg. of periapsis
98.1701°
True anomaly
261.92999°
Mean anomaly
261.9432°
Eccentric anomaly
261.9366°
Mean motion
3.82528 °/min
Orbital period
94.11 mins
BSTAR
0.000023718
Loading maneuver chart data...
Computing Atmospheric mass density...
Loading historical data...
Loading historical data...
Loading historical data...
Loading historical data...
Loading historical data...
Loading historical data...
Loading historical data...

Documentation

Showing up to 5 results
|